Location: Killam
(52.7910°N, 111.8608°W)
Time: 20:40:29
(UTC+00:00)

Vanguard 2 Rocket - Pass Details

Date: 19 February 2026
Orbit: 553 x 3286 km, 32.9° (Epoch: 8 March)

Event Time Altitude Azimuth Distance (km) Brightness Sun altitude
Rises 18:37:54 0° 214° (SW) 7,232 12.0 24.7°
Reaches altitude 10° 18:44:06 10° 203° (SSW) 6,216 12.1 25.0°
Maximum altitude 18:58:07 26° 158° (SSE) 4,570 12.9 25.5°
Drops below altitude 10° 19:09:22 10° 110° (ESE) 4,968 11.1 25.8°
Sets 19:13:32 0° 98° (E) 5,581 11.1 25.9°
